User: anonymous   Login
Location: Arrington
(35.8681°N, 86.7092°W)
Time: 02:37:26
(UTC+00:00)
Language:

STARLINK-67 - Orbit

View from above orbital plane
View from above orbital plane
View from above satellite
View from above satellite

Ground track
Ground track

The orbit data is extracted from the following two-line orbital elements,

1 44278U 19029AV  20021.91667824  .00428671  79028-4  14553-2 0  9992
2 44278  52.9933  43.4241 0021398  39.4775 248.8436 15.88957826 38357
Epoch (UTC): 21 January 2020 22:00:01
Eccentricity: 0.0021398
inclination: 52.9933°
perigee height: 291 km
apogee height: 319 km
right ascension of ascending node: 43.4241°
argument of perigee: 39.4775°
revolutions per day: 15.88957826
mean anomaly at epoch: 248.8436°
orbit number at epoch: 3835

The dashed part of the orbit path shows where the satellite is in the earth's shadow,  

DLR